Wind_Speed
10 11 11 11 11 11 11 12 13 13 14 14 14 14 14 13 13 14 15 16 16 17 17 17 17 18 18 19 20 21 21 22 22 22 23 24 24 24 25 27 27 28 28 29
10 10 10 10 10 10 10 11 12 13 14 14 15 15 14 13 13 13 14 15 15 16 16 16 17 17 17 19 19 19 20 21 21 22 23 22 23 24 26 26 27 28 29 30
10 10 9 10 10 10 10 11 12 13 14 14 15 15 14 14 14 13 13 14 14 15 15 15 16 17 17 18 19 19 20 20 21 21 22 23 24 24 25 25 26 27 27 28
9 9 9 9 9 10 10 11 12 13 14 14 14 14 14 13 13 14 14 14 14 14 14 14 15 16 18 18 18 17 18 18 19 19 20 21 21 21 23 23 24 24 24 25
8 8 8 9 9 10 11 11 12 12 13 13 13 13 13 12 13 13 13 13 13 14 14 15 15 16 16 16 16 16 16 17 18 19 19 19 19 20 20 21 21 22 22 22
7 8 8 8 9 9 10 10 11 11 12 12 11 12 11 11 11 11 12 12 12 12 13 13 13 13 13 14 14 15 16 17 17 17 18 18 18 18 18 19 19 20 21 21
7 7 7 7 8 8 9 10 10 11 11 11 11 11 11 10 10 10 10 10 11 12 12 12 12 12 12 12 13 13 14 15 15 15 15 16 17 17 17 18 18 19 19 19
6 6 7 7 7 7 8 9 10 10 10 10 10 10 10 9 8 8 7 7 8 9 9 9 9 10 10 11 11 12 12 12 13 13 14 14 15 15 16 16 16 17 17 17
6 6 6 6 6 6 7 9 9 9 9 9 9 9 9 8 7 6 5 5 6 7 7 7 7 8 8 9 10 10 10 11 12 13 13 13 14 14 14 15 15 14 14 14
6 5 5 5 5 5 6 8 8 9 8 9 8 8 8 7 6 5 4 4 5 5 6 6 7 7 7 7 8 9 9 10 11 11 12 12 12 12 12 12 12 12 12 12
5 4 3 3 3 4 6 7 7 8 8 8 9 8 8 7 7 6 5 4 5 5 5 5 5 5 5 6 7 8 8 9 9 9 9 9 9 8 9 9 9 9 9 10
5 3 1 1 3 4 5 6 6 7 7 8 8 8 8 7 7 7 6 5 5 5 5 5 5 5 5 5 6 6 6 5 5 6 6 6 6 6 6 6 6 6 7 7
4 3 1 1 2 4 5 6 6 7 7 8 9 9 9 8 8 8 8 7 7 7 7 6 6 5 5 4 4 4 4 3 3 3 3 3 3 3 3 3 4 4 4 5
5 3 2 0 2 4 5 6 6 7 8 9 9 10 10 9 9 10 9 8 8 8 8 8 7 6 5 5 5 5 5 4 3 3 3 3 2 2 2 3 3 3 3 3
6 4 2 1 2 4 5 6 7 7 8 9 10 11 11 11 11 11 11 10 10 10 10 9 9 9 8 7 7 6 6 6 5 4 4 4 3 3 3 3 3 3 3 3
7 5 3 3 4 5 6 7 8 8 9 10 11 11 12 12 12 12 13 12 12 12 12 12 12 11 10 9 8 8 8 8 7 7 6 6 5 5 5 5 5 5 4 4
8 6 5 4 5 5 6 8 9 9 9 10 11 11 12 13 13 14 14 14 14 14 14 14 13 13 13 12 11 11 11 10 9 9 8 8 8 7 7 7 7 6 6 6
9 8 6 6 6 6 7 8 9 10 10 11 11 12 13 13 14 14 15 15 15 15 16 15 15 14 14 14 14 13 13 12 12 12 11 11 10 9 9 9 8 8 8 7
11 9 8 7 7 7 8 8 9 10 11 11 12 13 13 14 15 15 16 16 17 17 17 17 17 17 16 16 15 15 15 14 14 13 13 13 12 12 11 11 10 10 9 9
12 10 9 8 7 7 8 9 10 10 11 12 12 13 14 14 15 16 16 17 18 18 18 18 18 18 18 18 17 17 17 16 15 15 15 14 13 13 13 12 12 11 11 10
13 11 10 9 8 8 8 9 10 10 11 11 12 13 13 14 15 15 16 17 18 18 18 18 18 18 18 18 17 17 17 17 16 16 15 15 14 14 14 13 13 12 12 11
14 13 11 10 9 9 9 9 9 10 10 11 11 12 13 13 14 15 15 16 17 17 18 18 18 18 18 18 18 17 17 17 16 16 15 15 15 14 14 13 13 13 13 12
15 13 12 10 9 9 9 9 9 9 10 10 11 11 12 13 13 14 14 15 15 16 17 17 18 18 18 18 17 17 17 17 16 16 15 14 14 14 14 13 13 13 13 13
16 14 13 11 10 9 8 8 8 8 9 9 10 10 11 11 12 13 13 14 14 14 15 16 16 17 17 17 17 17 16 16 16 16 15 14 14 14 13 13 13 13 12 12
18 16 14 12 10 9 8 7 7 7 7 8 8 9 10 10 11 11 12 12 13 13 13 14 14 14 15 15 16 15 15 15 15 15 15 14 14 13 13 13 13 12 12 12
19 17 15 13 11 9 8 6 5 5 6 6 6 7 8 8 9 9 10 10 11 11 12 12 13 13 13 14 14 14 14 14 14 14 14 13 13 13 13 13 12 12 12 11
20 18 16 14 11 10 8 6 5 4 4 4 4 5 6 6 7 7 8 8 9 9 10 11 11 11 12 12 13 13 13 12 12 13 13 12 12 12 12 12 12 12 12 11
Wind_Direction
288 290 292 294 296 298 296 292 289 287 287 289 288 288 289 287 280 273 270 269 266 263 259 256 255 255 252 253 254 255 255 255 254 253 254 254 254 255 258 261 262 264 266 268
292 294 293 293 295 297 299 298 294 292 292 292 292 293 294 289 285 280 275 271 269 265 260 257 258 256 254 253 253 255 253 252 253 254 255 256 257 260 262 264 265 266 268 269
294 293 295 294 296 296 298 298 296 296 296 298 296 294 294 291 288 285 278 274 269 266 263 262 262 260 261 259 258 258 257 257 258 258 260 260 261 263 265 266 268 270 270 270
291 295 295 295 298 299 300 300 299 299 299 300 301 298 295 291 287 284 278 273 267 267 265 263 263 264 268 268 268 267 265 262 263 265 265 265 266 267 269 270 271 272 272 273
285 289 294 299 302 305 306 307 307 306 305 304 304 303 299 293 289 284 278 272 270 269 268 268 266 267 269 271 271 270 269 269 268 270 271 271 272 273 273 272 272 273 274 274
280 283 289 296 304 309 312 315 316 315 312 310 309 309 305 297 290 283 278 272 271 269 269 272 271 270 270 271 272 271 272 274 274 273 274 276 276 276 276 275 275 276 277 277
275 278 285 294 305 313 317 318 320 319 316 314 313 312 311 306 299 287 281 277 274 275 275 276 280 279 273 272 272 273 273 274 275 276 276 275 275 276 276 276 276 276 277 278
266 271 282 293 305 312 316 323 325 323 320 319 319 318 319 318 309 298 287 282 282 283 283 281 281 281 275 277 276 275 274 275 277 278 278 278 279 278 277 277 277 277 277 278
260 269 280 293 305 314 323 331 333 332 332 332 330 328 329 329 324 315 302 296 295 297 296 294 292 287 279 277 277 277 277 277 279 279 281 280 280 279 278 277 277 277 277 278
259 268 280 296 311 323 336 341 342 344 346 346 346 348 348 347 345 339 325 311 310 310 305 297 295 293 285 280 280 281 282 282 282 284 286 285 285 283 280 278 277 277 277 277
247 260 285 304 324 339 346 349 352 355 357 356 358 0 3 6 6 4 358 350 340 333 326 319 313 310 305 296 293 290 288 287 288 289 291 291 290 287 284 283 280 278 277 277
233 243 255 318 342 352 356 359 3 5 8 9 13 17 20 22 23 20 15 12 4 360 352 348 342 333 326 320 315 309 302 297 297 297 296 295 295 293 290 288 286 283 283 284
213 212 200 317 359 13 16 17 20 23 26 29 31 32 35 37 37 34 31 27 22 16 10 6 360 354 352 352 350 346 340 336 332 324 317 315 312 311 309 307 307 306 305 306
197 191 184 49 27 28 30 32 35 39 40 40 41 42 43 44 42 39 36 34 32 31 30 28 27 30 34 33 29 29 27 25 20 16 12 10 10 8 0 352 348 344 338 334
184 178 165 106 64 51 47 46 47 50 50 48 48 49 49 50 48 46 45 47 45 43 43 45 47 49 51 50 47 45 44 45 41 43 48 49 46 39 28 25 25 23 21 13
176 166 147 115 88 71 64 59 59 61 58 55 55 56 56 55 54 52 52 52 52 51 52 54 56 57 55 54 53 55 57 57 56 57 59 57 54 49 46 47 50 47 43 36
169 159 142 122 101 86 76 70 69 68 63 59 59 59 58 57 57 56 56 55 55 56 57 57 58 59 57 58 59 61 62 62 61 61 61 61 61 61 59 58 57 54 51 48
166 155 144 129 111 97 86 80 76 72 69 65 64 65 64 62 61 59 58 57 57 58 58 58 59 59 61 62 63 64 65 65 64 64 64 64 63 63 61 59 58 57 54 49
163 154 143 130 116 103 94 87 81 76 72 70 69 70 68 65 64 62 61 60 59 59 59 59 60 62 63 65 65 66 66 66 66 65 65 65 64 63 62 61 60 58 55 53
162 155 145 133 120 110 101 93 86 80 77 75 74 72 69 67 65 64 62 62 62 62 61 61 61 63 64 65 65 66 66 66 66 65 65 64 64 64 63 61 59 57 55 52
162 157 149 138 125 114 106 99 91 84 80 78 76 73 70 68 66 64 63 63 63 62 62 61 61 62 63 64 64 64 64 64 63 63 63 63 62 62 60 58 56 54 53 51
163 159 153 143 132 121 110 101 94 88 83 80 76 73 70 68 66 65 64 63 63 62 62 61 60 61 62 62 62 62 61 61 60 59 59 59 59 59 57 55 53 52 50 50
167 164 159 151 142 130 117 106 97 90 86 82 78 73 70 68 66 65 64 63 62 61 61 60 59 59 60 61 61 60 59 58 57 56 56 55 54 54 53 52 50 49 48 48
172 169 164 158 150 140 128 114 101 92 87 83 79 75 71 68 66 64 63 62 62 61 60 58 58 57 57 57 57 56 55 54 53 52 52 51 50 50 49 48 47 45 44 43
176 174 171 166 159 151 141 128 112 99 91 85 80 76 72 68 65 62 61 59 59 58 56 55 53 52 52 52 51 51 50 50 50 50 49 48 47 45 44 43 41 39 38 37
180 179 178 175 170 164 157 147 131 113 99 89 80 74 70 65 61 58 56 54 53 52 51 50 49 47 46 45 45 45 44 43 43 43 42 42 41 39 37 36 34 32 31 30
184 184 183 181 179 176 173 166 154 138 118 98 82 70 62 56 53 50 47 45 43 43 42 42 41 40 39 38 37 36 35 35 34 33 33 32 31 29 27 26 25 24 22 20
Height
5759 5757 5756 5755 5754 5752 5751 5750 5749 5748 5745 5744 5742 5740 5739 5737 5737 5736 5736 5736 5735 5735 5735 5734 5734 5734 5734 5735 5736 5736 5737 5737 5738 5738 5739 5739 5739 5740 5740 5740 5740 5740 5740 5740
5756 5754 5753 5752 5751 5749 5748 5747 5745 5744 5742 5740 5738 5736 5735 5734 5733 5732 5732 5731 5730 5730 5729 5729 5729 5729 5730 5730 5730 5731 5731 5731 5731 5732 5732 5732 5732 5733 5732 5732 5732 5732 5732 5732
5753 5751 5750 5750 5748 5747 5745 5744 5742 5740 5739 5736 5734 5733 5731 5730 5729 5728 5727 5727 5726 5725 5725 5725 5725 5725 5725 5724 5724 5725 5725 5725 5725 5725 5726 5726 5726 5726 5725 5725 5725 5724 5724 5724
5750 5750 5749 5749 5746 5744 5742 5741 5739 5737 5735 5733 5731 5729 5728 5726 5725 5724 5723 5723 5722 5721 5721 5720 5720 5720 5719 5719 5719 5719 5719 5719 5719 5719 5719 5719 5719 5719 5719 5718 5718 5717 5717 5717
5748 5747 5747 5745 5743 5741 5740 5738 5736 5734 5732 5729 5728 5726 5724 5723 5721 5720 5719 5718 5718 5717 5717 5716 5715 5715 5714 5714 5714 5714 5714 5714 5714 5714 5714 5713 5713 5713 5712 5712 5711 5711 5710 5710
5746 5745 5745 5744 5741 5739 5738 5736 5733 5731 5729 5727 5725 5723 5722 5719 5717 5716 5715 5715 5714 5713 5712 5712 5711 5710 5710 5710 5710 5710 5709 5709 5709 5709 5708 5708 5707 5707 5706 5706 5706 5705 5704 5703
5743 5743 5742 5741 5739 5738 5737 5735 5731 5728 5726 5724 5722 5721 5719 5716 5714 5713 5712 5711 5710 5710 5709 5708 5707 5707 5706 5706 5706 5705 5705 5704 5704 5704 5703 5703 5702 5702 5701 5701 5700 5700 5699 5698
5741 5741 5742 5738 5737 5736 5735 5731 5729 5726 5724 5722 5720 5717 5715 5713 5711 5710 5709 5708 5707 5707 5706 5705 5704 5703 5703 5702 5702 5702 5701 5701 5700 5700 5699 5699 5698 5697 5697 5696 5695 5694 5694 5693
5740 5741 5738 5736 5735 5734 5731 5729 5727 5724 5722 5720 5717 5715 5713 5711 5709 5707 5706 5705 5705 5704 5703 5702 5701 5701 5700 5699 5699 5698 5698 5697 5697 5696 5695 5695 5694 5693 5692 5691 5691 5690 5689 5688
5737 5737 5736 5734 5733 5732 5730 5727 5725 5723 5720 5718 5716 5713 5711 5709 5708 5706 5705 5704 5703 5702 5701 5700 5699 5698 5697 5697 5696 5695 5694 5694 5693 5692 5691 5690 5689 5689 5688 5687 5686 5686 5685 5684
5736 5735 5734 5733 5732 5730 5728 5726 5724 5721 5719 5717 5715 5712 5710 5708 5707 5705 5704 5703 5702 5700 5699 5698 5697 5696 5695 5694 5693 5692 5691 5691 5690 5689 5688 5687 5686 5685 5684 5684 5683 5683 5682 5681
5735 5734 5734 5733 5731 5729 5728 5726 5724 5721 5719 5716 5714 5712 5710 5708 5707 5705 5704 5702 5701 5700 5698 5696 5695 5694 5693 5692 5691 5690 5689 5688 5687 5686 5685 5684 5684 5683 5682 5682 5681 5680 5679 5679
5733 5733 5733 5732 5731 5729 5727 5725 5723 5721 5719 5717 5715 5712 5711 5709 5707 5706 5704 5702 5701 5699 5697 5695 5694 5693 5692 5690 5689 5688 5687 5686 5685 5685 5684 5683 5682 5682 5681 5680 5679 5678 5677 5677
5732 5732 5732 5731 5730 5729 5727 5726 5724 5722 5720 5718 5716 5714 5712 5710 5708 5707 5705 5703 5701 5699 5697 5695 5694 5692 5691 5690 5689 5688 5687 5686 5685 5684 5683 5682 5682 5681 5680 5680 5679 5678 5677 5676
5732 5732 5732 5731 5730 5729 5728 5726 5725 5723 5721 5720 5717 5716 5714 5712 5710 5708 5706 5704 5702 5700 5698 5696 5695 5693 5692 5691 5689 5688 5687 5686 5685 5684 5683 5683 5682 5681 5680 5679 5678 5677 5677 5676
5731 5732 5732 5731 5731 5730 5728 5727 5726 5724 5723 5722 5720 5718 5716 5714 5712 5710 5708 5706 5704 5702 5700 5698 5696 5695 5693 5692 5691 5690 5688 5687 5686 5685 5684 5684 5683 5682 5681 5680 5679 5678 5677 5676
5731 5732 5732 5732 5731 5731 5730 5729 5727 5726 5725 5724 5722 5720 5719 5717 5715 5713 5711 5709 5707 5705 5703 5701 5699 5697 5696 5694 5693 5692 5690 5689 5688 5687 5686 5685 5684 5683 5682 5681 5680 5679 5678 5677
5731 5732 5732 5733 5732 5732 5731 5730 5729 5728 5727 5726 5725 5723 5722 5720 5718 5716 5714 5712 5710 5708 5706 5704 5702 5700 5698 5697 5696 5694 5693 5692 5691 5690 5689 5687 5686 5685 5684 5683 5682 5681 5679 5678
5731 5732 5733 5733 5733 5733 5733 5732 5731 5731 5730 5728 5727 5726 5725 5723 5721 5719 5717 5715 5713 5711 5709 5707 5705 5704 5702 5700 5699 5697 5696 5695 5694 5693 5691 5690 5689 5688 5686 5685 5684 5683 5681 5680
5731 5732 5733 5734 5734 5735 5735 5734 5734 5733 5732 5731 5730 5729 5728 5726 5724 5723 5721 5719 5717 5715 5713 5711 5709 5708 5706 5704 5703 5701 5700 5699 5697 5696 5695 5693 5692 5691 5689 5688 5687 5685 5684 5682
5731 5733 5734 5735 5736 5736 5736 5736 5736 5735 5735 5734 5733 5732 5731 5729 5728 5726 5724 5723 5721 5719 5717 5716 5714 5712 5710 5708 5707 5705 5704 5702 5701 5700 5698 5697 5695 5694 5693 5691 5690 5688 5686 5685
5731 5733 5735 5736 5737 5737 5738 5738 5738 5737 5737 5736 5735 5734 5733 5732 5731 5729 5728 5727 5725 5723 5721 5720 5718 5716 5714 5713 5711 5709 5708 5706 5705 5703 5702 5700 5699 5697 5696 5694 5693 5691 5689 5688
5731 5733 5735 5737 5738 5739 5739 5739 5739 5739 5739 5738 5738 5737 5736 5735 5733 5732 5731 5730 5728 5727 5725 5724 5722 5720 5718 5716 5715 5713 5711 5710 5708 5707 5705 5704 5702 5701 5699 5698 5696 5694 5692 5691
5730 5733 5735 5737 5738 5739 5740 5741 5741 5741 5741 5740 5740 5739 5738 5737 5736 5735 5734 5733 5731 5730 5729 5727 5726 5724 5722 5720 5718 5717 5715 5714 5712 5710 5709 5707 5705 5704 5702 5700 5699 5697 5695 5693
5729 5732 5735 5737 5738 5740 5741 5741 5742 5742 5742 5742 5741 5741 5740 5739 5739 5738 5736 5735 5734 5733 5732 5730 5729 5727 5725 5724 5722 5720 5719 5717 5715 5713 5712 5710 5708 5706 5705 5703 5701 5699 5698 5696
5728 5731 5734 5736 5738 5740 5741 5742 5742 5743 5743 5743 5743 5742 5742 5741 5740 5739 5739 5737 5736 5735 5734 5732 5731 5729 5728 5726 5725 5723 5721 5720 5718 5716 5714 5712 5711 5709 5707 5705 5703 5701 5700 5698
5726 5730 5732 5735 5737 5739 5741 5742 5742 5743 5743 5744 5743 5743 5743 5742 5741 5741 5740 5739 5738 5737 5736 5734 5733 5731 5730 5728 5727 5725 5723 5722 5720 5718 5716 5714 5712 5711 5709 5707 5705 5703 5701 5699